This is the latest recevied weather packets stored in our database for station/object HB9GPU-10. If no packets are shown the sender has not sent any weather packets the latest 10 day(s).
| Time | Temp. | Humidity | Pressure | Rain* | Wind** | Luminosity | Snow |
|---|---|---|---|---|---|---|---|
| 1777807486 | 26.11° C | 19% | 1018.4 hPa | - | - | - | - |
| 1777807482 | 26.11° C | 19% | 1018.4 hPa | - | - | - | - |
| 1777806586 | 26.11° C | 19% | 1018.5 hPa | - | - | - | - |
| 1777806582 | 26.11° C | 19% | 1018.5 hPa | - | - | - | - |
| 1777805686 | 26.11° C | 19% | 1018.5 hPa | - | - | - | - |
| 1777805681 | 26.11° C | 19% | 1018.5 hPa | - | - | - | - |
| 1777804786 | 26.11° C | 19% | 1018.6 hPa | - | - | - | - |
| 1777804781 | 26.11° C | 19% | 1018.6 hPa | - | - | - | - |
| 1777803885 | 26.11° C | 18% | 1018.8 hPa | - | - | - | - |
| 1777803881 | 26.11° C | 18% | 1018.8 hPa | - | - | - | - |
| 1777802985 | 26.67° C | 14% | 1018.8 hPa | - | - | - | - |
| 1777802981 | 26.67° C | 14% | 1018.8 hPa | - | - | - | - |
| 1777802085 | 27.22° C | 14% | 1018.7 hPa | - | - | - | - |
| 1777802081 | 27.22° C | 14% | 1018.7 hPa | - | - | - | - |
| 1777801185 | 26.67° C | 16% | 1018.9 hPa | - | - | - | - |
| 1777801181 | 26.67° C | 16% | 1018.9 hPa | - | - | - | - |
| 1777800285 | 26.67° C | 14% | 1019.2 hPa | - | - | - | - |
| 1777800280 | 26.67° C | 14% | 1019.2 hPa | - | - | - | - |
| 1777799385 | 26.67° C | 13% | 1019.3 hPa | - | - | - | - |
| 1777799380 | 26.67° C | 13% | 1019.3 hPa | - | - | - | - |
| 1777798484 | 26.11° C | 16% | 1019.3 hPa | - | - | - | - |
| 1777798480 | 26.11° C | 16% | 1019.3 hPa | - | - | - | - |
| 1777797584 | 26.11° C | 20% | 1019.4 hPa | - | - | - | - |
| 1777797580 | 26.11° C | 20% | 1019.4 hPa | - | - | - | - |
| 1777796684 | 26.11° C | 20% | 1019.7 hPa | - | - | - | - |
* Rain since midnight (hover to see other rain measurements)
** Current wind speed in m/s (hover to see current wind gust speed)